Bloomington, IN

6:43 AM EST on December 16, 2019 (GMT -0500)
Monroe County

Weather History for KBMG - September, 2019

Change the Weather History Date:

Friday, September 27, 2019

  Actual Average Record
Temperature  
Mean Temperature 70 °F 61 °F  
Max Temperature 91 °F 74 °F 89 °F (1998)
Min Temperature 49 °F 48 °F 39 °F (2000)
Degree Days  
Heating Degree Days 0 6  
Month to date heating degree days 2 59  
Since 1 July heating degree days 2 66  
Cooling Degree Days 5 1  
Month to date cooling degree days 190 93  
Year to date cooling degree days 1162 910  
Growing Degree Days 20 (Base 50)    
Moisture  
Dew Point 55 °F    
Average Humidity 62    
Maximum Humidity 89    
Minimum Humidity 38    
Precipitation  
Precipitation 0.00 in 0.12 in 0.87 in (2002)
Month to date precipitation 1.20 2.95  
Year to date precipitation 37.42 36.14  
Sea Level Pressure  
Sea Level Pressure 29.89 in    
Wind  
Wind Speed 5 mph ()    
Max Wind Speed 23 mph    
Max Gust Speed 35 mph    
Visibility 9.9 miles    
Events      
T = Trace of Precipitation, MM = Missing Value Source: Averaged Metar Reports

Daily Weather History Graph

Daily Weather History Graph

Search for Another Location

Airport or City:

Astronomy

Sep. 27, 2019 Rise Set
Actual Time 7:38 AM EDT 7:35 PM EDT
Civil Twilight 7:11 AM EDT 8:02 PM EDT
Nautical Twilight 6:40 AM EDT 8:33 PM EDT
Astronomical Twilight 6:09 AM EDT 9:04 PM EDT
Moon 6:00 AM EDT (9/27) 7:25 PM EDT (9/27)
Length of Visible Light 12h 50m
Length of Day
11h 57m
Waning Crescent, 2% of the Moon is Illuminated
Sep 27
Waning Crescent
Sep 28
New
Oct 5
First Quarter
Oct 13
Full
Oct 21
Last Quarter

Hourly Weather History & Observations

Time (EDT) Temp. Heat Index Dew Point Humidity Pressure Visibility Wind Dir Wind Speed Gust Speed Precip Events Conditions
12:53 AM 51.1 °F - 46.9 °F 86% 29.98 in 10.0 mi Calm Calm - N/A   Clear
1:53 AM 51.1 °F - 46.9 °F 86% 29.97 in 10.0 mi Calm Calm - N/A   Clear
2:53 AM 51.1 °F - 46.9 °F 86% 29.96 in 10.0 mi Calm Calm - N/A   Clear
3:53 AM 53.1 °F - 48.0 °F 83% 29.94 in 10.0 mi Calm Calm - N/A   Clear
4:53 AM 51.1 °F - 48.0 °F 89% 29.94 in 10.0 mi Calm Calm - N/A   Clear
5:53 AM 51.1 °F - 46.9 °F 86% 29.95 in 10.0 mi Calm Calm - N/A   Clear
6:53 AM 52.0 °F - 46.9 °F 83% 29.95 in 8.0 mi Calm Calm - N/A   Partly Cloudy
7:53 AM 54.0 °F - 46.9 °F 77% 29.96 in 10.0 mi SSE 5.8 mph - N/A   Clear
8:53 AM 57.9 °F - 45.0 °F 62% 29.96 in 10.0 mi SSE 6.9 mph - N/A   Clear
9:53 AM 63.0 °F - 46.0 °F 54% 29.95 in 10.0 mi SE 9.2 mph - N/A   Clear
10:53 AM 70.0 °F - 51.1 °F 51% 29.93 in 10.0 mi SSE 10.4 mph - N/A   Clear
11:53 AM 79.0 °F - 60.1 °F 52% 29.90 in 10.0 mi South 13.8 mph 21.9 mph N/A   Clear
12:53 PM 84.9 °F 85.9 °F 63.0 °F 48% 29.88 in 10.0 mi SSW 12.7 mph 21.9 mph N/A   Clear
1:53 PM 87.1 °F 88.3 °F 64.0 °F 46% 29.87 in 10.0 mi SW 13.8 mph 21.9 mph N/A   Clear
2:53 PM 89.1 °F 89.3 °F 62.1 °F 40% 29.83 in 10.0 mi SSW 17.3 mph 28.8 mph N/A   Clear
3:53 PM 90.0 °F 90.0 °F 61.0 °F 38% 29.82 in 10.0 mi SSW 18.4 mph 31.1 mph N/A   Clear
4:53 PM 89.1 °F 89.0 °F 61.0 °F 39% 29.84 in 10.0 mi SW 11.5 mph 25.3 mph N/A   Clear
5:53 PM 89.1 °F 89.0 °F 61.0 °F 39% 29.83 in 10.0 mi South 12.7 mph 20.7 mph N/A   Clear
6:53 PM 86.0 °F 86.3 °F 62.1 °F 44% 29.83 in 10.0 mi South 10.4 mph - N/A   Clear
7:53 PM 80.1 °F 81.2 °F 62.1 °F 54% 29.83 in 10.0 mi South 4.6 mph - N/A   Clear
8:53 PM 78.1 °F - 62.1 °F 58% 29.82 in 10.0 mi South 5.8 mph - N/A   Clear
9:53 PM 77.0 °F - 62.1 °F 60% 29.81 in 10.0 mi SSE 5.8 mph - N/A   Clear
10:53 PM 75.0 °F - 63.0 °F 66% 29.83 in 10.0 mi SE 5.8 mph - N/A   Clear
11:53 PM 73.9 °F - 63.0 °F 68% 29.84 in 10.0 mi SSE 5.8 mph - N/A   Clear